Location: Boda
(47.1872°N, 9.5454°E)
Time: 17:05:15
(UTC+00:00)

USA 276 - Pass Details

Date: 14 May 2021
Orbit: 383 x 389 km, 50.0° (Epoch: 01 June)

Event Time Altitude Azimuth Distance (km) Brightness Sun altitude
Exits shadow 01:52:28 17° 282° (WNW) 1,070 4.1 -15.6°
Maximum altitude 01:54:41 50° 355° (N) 503 2.9 -15.4°
Drops below altitude 10° 01:57:46 10° 72° (ENE) 1,413 5.8 -15.0°
Sets 01:59:52 0° 78° (ENE) 2,266 6.8 -14.8°
